Time,TemperatureF,DewpointF,PressureIn,WindDirection,WindDirectionDegrees,WindSpeedMPH,WindSpeedGustMPH,Humidity,HourlyPrecipIn,Conditions,Clouds,dailyrainin,SoftwareType,DateUTC
2013-04-17 00:02:00,43.0,27.0,30.06,ENE,70,5.0,-999.0,52,-99.99,,,-99.99,,2013-04-17 05:02:00,
2013-04-17 00:12:00,43.0,27.0,30.05,NE,50,6.0,-999.0,52,-99.99,,,-99.99,,2013-04-17 05:12:00,
2013-04-17 00:22:00,43.0,27.0,30.05,ENE,70,7.0,-999.0,52,-99.99,,,-99.99,,2013-04-17 05:22:00,
2013-04-17 00:32:00,43.0,27.0,30.05,ENE,60,5.0,-999.0,52,-99.99,,,-99.99,,2013-04-17 05:32:00,
2013-04-17 00:42:00,43.0,27.0,30.04,NE,50,7.0,-999.0,52,-99.99,,,-99.99,,2013-04-17 05:42:00,
2013-04-17 00:52:00,43.0,27.0,30.03,NE,50,8.0,-999.0,52,-99.99,,,-99.99,,2013-04-17 05:52:00,
2013-04-17 01:02:00,43.0,27.0,30.03,NE,50,8.0,-999.0,52,-99.99,,,-99.99,,2013-04-17 06:02:00,
2013-04-17 01:12:00,43.0,28.0,30.03,ENE,60,8.0,-999.0,56,-99.99,,,-99.99,,2013-04-17 06:12:00,
2013-04-17 01:22:00,43.0,27.0,30.03,NE,50,10.0,-999.0,52,-99.99,,,-99.99,,2013-04-17 06:22:00,
2013-04-17 01:32:00,43.0,27.0,30.04,ENE,60,10.0,-999.0,52,-99.99,,,-99.99,,2013-04-17 06:32:00,
2013-04-17 01:42:00,43.0,27.0,30.04,ENE,60,7.0,-999.0,52,-99.99,,,-99.99,,2013-04-17 06:42:00,
2013-04-17 01:52:00,43.0,28.0,30.03,NE,40,7.0,-999.0,56,-99.99,,,-99.99,,2013-04-17 06:52:00,
2013-04-17 02:02:00,43.0,28.0,30.03,NE,40,7.0,-999.0,56,-99.99,,,-99.99,,2013-04-17 07:02:00,
2013-04-17 02:12:00,43.0,28.0,30.02,NE,40,8.0,-999.0,56,-99.99,,,-99.99,,2013-04-17 07:12:00,
2013-04-17 02:22:00,41.0,28.0,29.99,NNE,30,9.0,-999.0,60,-99.99,,,-99.99,,2013-04-17 07:22:00,
2013-04-17 02:32:00,41.0,28.0,29.97,NE,40,12.0,16.0,60,-99.99,,,-99.99,,2013-04-17 07:32:00,
2013-04-17 02:42:00,41.0,28.0,29.96,NNE,30,9.0,-999.0,60,-99.99,,,-99.99,,2013-04-17 07:42:00,
2013-04-17 02:52:00,41.0,28.0,29.97,NE,40,12.0,-999.0,60,-99.99,,,-99.99,,2013-04-17 07:52:00,
2013-04-17 03:02:00,41.0,28.0,29.97,NE,40,12.0,-999.0,60,-99.99,,,-99.99,,2013-04-17 08:02:00,
2013-04-17 03:12:00,41.0,28.0,30.00,ENE,60,9.0,-999.0,60,-99.99,,,-99.99,,2013-04-17 08:12:00,
2013-04-17 03:22:00,41.0,30.0,29.98,NNE,30,5.0,-999.0,65,-99.99,,,-99.99,,2013-04-17 08:22:00,
2013-04-17 03:32:00,41.0,30.0,30.00,ENE,70,3.0,-999.0,65,-99.99,,,-99.99,,2013-04-17 08:32:00,
2013-04-17 03:42:00,41.0,30.0,30.00,East,80,6.0,-999.0,65,-99.99,,,-99.99,,2013-04-17 08:42:00,
2013-04-17 03:52:00,41.0,30.0,29.99,ENE,60,8.0,-999.0,65,-99.99,,,-99.99,,2013-04-17 08:52:00,
2013-04-17 04:02:00,41.0,30.0,29.99,ENE,60,8.0,-999.0,65,-99.99,,,-99.99,,2013-04-17 09:02:00,
2013-04-17 04:12:00,39.0,30.0,29.98,NE,40,6.0,-999.0,69,-99.99,,,-99.99,,2013-04-17 09:12:00,
2013-04-17 04:22:00,39.0,32.0,29.97,NE,50,6.0,-999.0,75,-99.99,,,-99.99,,2013-04-17 09:22:00,
2013-04-17 04:33:00,39.0,32.0,29.98,NE,50,7.0,-999.0,75,-99.99,,,-99.99,,2013-04-17 09:33:00,
2013-04-17 04:42:00,39.0,32.0,29.97,NE,50,8.0,-999.0,75,-99.99,,,-99.99,,2013-04-17 09:42:00,
2013-04-17 04:52:00,39.0,32.0,29.97,NNE,30,7.0,-999.0,75,-99.99,,,-99.99,,2013-04-17 09:52:00,
2013-04-17 05:02:00,39.0,32.0,29.97,NNE,30,7.0,-999.0,75,-99.99,,,-99.99,,2013-04-17 10:02:00,
2013-04-17 05:12:00,39.0,32.0,29.97,NNE,30,9.0,-999.0,75,-99.99,,,-99.99,,2013-04-17 10:12:00,
2013-04-17 05:23:00,39.0,32.0,29.97,NNE,30,8.0,-999.0,75,-99.99,,,-99.99,,2013-04-17 10:23:00,
2013-04-17 05:32:00,39.0,32.0,29.97,NNE,30,9.0,-999.0,75,-99.99,,,-99.99,,2013-04-17 10:32:00,
2013-04-17 05:42:00,39.0,32.0,29.96,NNE,30,7.0,-999.0,75,-99.99,,,-99.99,,2013-04-17 10:42:00,
2013-04-17 05:52:00,39.0,32.0,29.96,NNE,20,9.0,-999.0,75,-99.99,,,-99.99,,2013-04-17 10:52:00,
2013-04-17 06:02:00,39.0,32.0,29.96,NNE,20,9.0,-999.0,75,-99.99,,,-99.99,,2013-04-17 11:02:00,
2013-04-17 06:12:00,39.0,34.0,29.96,NNE,20,10.0,-999.0,80,-99.99,,,-99.99,,2013-04-17 11:12:00,
2013-04-17 06:22:00,39.0,34.0,29.96,NNE,30,12.0,16.0,80,-99.99,,,-99.99,,2013-04-17 11:22:00,
2013-04-17 06:32:00,39.0,34.0,29.96,NE,40,14.0,-999.0,80,-99.99,,,-99.99,,2013-04-17 11:32:00,
2013-04-17 06:42:00,39.0,34.0,29.96,NE,40,13.0,-999.0,80,-99.99,,,-99.99,,2013-04-17 11:42:00,
2013-04-17 06:52:00,39.0,34.0,29.96,NE,40,14.0,-999.0,80,-99.99,,,-99.99,,2013-04-17 11:52:00,
2013-04-17 07:02:00,39.0,34.0,29.96,NE,40,14.0,-999.0,80,-99.99,,,-99.99,,2013-04-17 12:02:00,
2013-04-17 07:12:00,39.0,34.0,29.96,NE,40,10.0,18.0,80,-99.99,,,-99.99,,2013-04-17 12:12:00,
2013-04-17 07:22:00,37.0,34.0,29.96,NE,40,13.0,-999.0,86,-99.99,,,-99.99,,2013-04-17 12:22:00,
2013-04-17 07:32:00,37.0,34.0,29.96,NNE,30,13.0,-999.0,86,-99.99,,,-99.99,,2013-04-17 12:32:00,
2013-04-17 07:42:00,37.0,34.0,29.96,NNE,20,13.0,-999.0,86,-99.99,,,-99.99,,2013-04-17 12:42:00,
2013-04-17 07:52:00,37.0,34.0,29.96,NNE,20,8.0,16.0,86,-99.99,,,-99.99,,2013-04-17 12:52:00,
2013-04-17 08:02:00,37.0,34.0,29.96,NNE,20,8.0,16.0,86,-99.99,,,-99.99,,2013-04-17 13:02:00,
2013-04-17 08:12:00,37.0,36.0,29.96,NNE,20,10.0,17.0,93,-99.99,,,-99.99,,2013-04-17 13:12:00,
2013-04-17 08:22:00,37.0,36.0,29.96,North,10,13.0,21.0,93,-99.99,,,-99.99,,2013-04-17 13:22:00,
2013-04-17 08:32:00,37.0,34.0,29.97,North,360,14.0,18.0,86,-99.99,,,-99.99,,2013-04-17 13:32:00,
2013-04-17 08:42:00,36.0,34.0,29.96,North,10,16.0,20.0,93,-99.99,,,-99.99,,2013-04-17 13:42:00,
2013-04-17 08:52:00,36.0,32.0,29.97,North,350,15.0,21.0,86,-99.99,,,-99.99,,2013-04-17 13:52:00,
2013-04-17 09:02:00,36.0,32.0,29.97,North,350,15.0,21.0,86,-99.99,,,-99.99,,2013-04-17 14:02:00,
2013-04-17 09:12:00,36.0,32.0,29.96,North,360,17.0,23.0,86,-99.99,,,-99.99,,2013-04-17 14:12:00,
2013-04-17 09:22:00,36.0,32.0,29.96,North,10,17.0,24.0,86,-99.99,,,-99.99,,2013-04-17 14:22:00,
2013-04-17 09:32:00,36.0,32.0,29.95,North,360,20.0,25.0,86,-99.99,,,-99.99,,2013-04-17 14:32:00,
2013-04-17 09:42:00,36.0,32.0,29.95,North,360,20.0,25.0,86,-99.99,,,-99.99,,2013-04-17 14:42:00,
2013-04-17 09:52:00,36.0,32.0,29.96,North,10,20.0,27.0,86,-99.99,,,-99.99,,2013-04-17 14:52:00,
2013-04-17 10:02:00,36.0,32.0,29.96,North,10,20.0,27.0,86,-99.99,,,-99.99,,2013-04-17 15:02:00,
2013-04-17 10:12:00,36.0,32.0,29.96,North,360,17.0,21.0,86,-99.99,,,-99.99,,2013-04-17 15:12:00,
2013-04-17 10:22:00,36.0,32.0,29.96,North,360,17.0,23.0,86,-99.99,,,-99.99,,2013-04-17 15:22:00,
2013-04-17 10:33:00,36.0,32.0,29.95,NNE,20,17.0,30.0,86,-99.99,,,-99.99,,2013-04-17 15:33:00,
2013-04-17 10:42:00,36.0,32.0,29.95,North,10,21.0,30.0,86,-99.99,,,-99.99,,2013-04-17 15:42:00,
2013-04-17 10:52:00,36.0,32.0,29.95,North,10,16.0,21.0,86,-99.99,,,-99.99,,2013-04-17 15:52:00,
2013-04-17 11:03:00,36.0,32.0,29.95,North,10,16.0,21.0,86,-99.99,,,-99.99,,2013-04-17 16:03:00,
2013-04-17 11:12:00,36.0,32.0,29.95,North,10,17.0,27.0,86,-99.99,,,-99.99,,2013-04-17 16:12:00,
2013-04-17 11:22:00,36.0,32.0,29.95,North,10,20.0,25.0,86,-99.99,,,-99.99,,2013-04-17 16:22:00,
2013-04-17 11:32:00,36.0,34.0,29.94,NNE,20,18.0,25.0,93,-99.99,,,-99.99,,2013-04-17 16:32:00,
2013-04-17 11:42:00,36.0,34.0,29.94,NNE,20,18.0,25.0,93,-99.99,,,-99.99,,2013-04-17 16:42:00,
2013-04-17 11:52:00,36.0,34.0,29.94,North,360,14.0,22.0,93,-99.99,,,-99.99,,2013-04-17 16:52:00,
2013-04-17 12:02:00,36.0,34.0,29.94,North,360,14.0,22.0,93,-99.99,,,-99.99,,2013-04-17 17:02:00,
2013-04-17 12:12:00,36.0,34.0,29.94,North,360,17.0,24.0,93,-99.99,,,-99.99,,2013-04-17 17:12:00,
2013-04-17 12:22:00,36.0,34.0,29.94,North,360,17.0,23.0,93,-99.99,,,-99.99,,2013-04-17 17:22:00,
2013-04-17 12:33:00,36.0,34.0,29.94,North,10,16.0,24.0,93,-99.99,,,-99.99,,2013-04-17 17:33:00,
2013-04-17 12:42:00,36.0,34.0,29.93,North,360,16.0,22.0,93,-99.99,,,-99.99,,2013-04-17 17:42:00,
2013-04-17 12:52:00,36.0,34.0,29.92,North,360,14.0,22.0,93,-99.99,,,-99.99,,2013-04-17 17:52:00,
2013-04-17 13:02:00,36.0,34.0,29.92,North,360,14.0,22.0,93,-99.99,,,-99.99,,2013-04-17 18:02:00,
2013-04-17 13:12:00,36.0,34.0,29.92,North,360,14.0,-999.0,93,-99.99,,,-99.99,,2013-04-17 18:12:00,
2013-04-17 13:22:00,37.0,34.0,29.91,North,10,17.0,23.0,86,-99.99,,,-99.99,,2013-04-17 18:22:00,
2013-04-17 13:32:00,37.0,34.0,29.91,North,350,17.0,25.0,86,-99.99,,,-99.99,,2013-04-17 18:32:00,
2013-04-17 13:42:00,37.0,34.0,29.89,North,360,20.0,24.0,86,-99.99,,,-99.99,,2013-04-17 18:42:00,
2013-04-17 13:52:00,37.0,34.0,29.88,North,360,18.0,25.0,86,-99.99,,,-99.99,,2013-04-17 18:52:00,
2013-04-17 14:02:00,37.0,34.0,29.88,North,360,18.0,25.0,86,-99.99,,,-99.99,,2013-04-17 19:02:00,
2013-04-17 14:12:00,37.0,34.0,29.88,North,10,17.0,23.0,86,-99.99,,,-99.99,,2013-04-17 19:12:00,
2013-04-17 14:22:00,37.0,32.0,29.88,North,360,15.0,20.0,80,-99.99,,,-99.99,,2013-04-17 19:22:00,
2013-04-17 14:32:00,37.0,32.0,29.86,North,350,17.0,21.0,80,-99.99,,,-99.99,,2013-04-17 19:32:00,
2013-04-17 14:42:00,37.0,32.0,29.85,North,360,18.0,25.0,80,-99.99,,,-99.99,,2013-04-17 19:42:00,
2013-04-17 14:52:00,37.0,32.0,29.84,North,350,21.0,29.0,80,-99.99,,,-99.99,,2013-04-17 19:52:00,
2013-04-17 15:02:00,37.0,32.0,29.84,North,350,21.0,29.0,80,-99.99,,,-99.99,,2013-04-17 20:02:00,
2013-04-17 15:12:00,37.0,32.0,29.85,North,350,16.0,24.0,80,-99.99,,,-99.99,,2013-04-17 20:12:00,
2013-04-17 15:22:00,37.0,32.0,29.87,North,350,18.0,23.0,80,-99.99,,,-99.99,,2013-04-17 20:22:00,
2013-04-17 15:32:00,37.0,32.0,29.88,North,360,17.0,22.0,80,-99.99,,,-99.99,,2013-04-17 20:32:00,
2013-04-17 15:42:00,37.0,32.0,29.87,North,350,15.0,22.0,80,-99.99,,,-99.99,,2013-04-17 20:42:00,
2013-04-17 15:52:00,37.0,32.0,29.86,North,360,15.0,21.0,80,-99.99,,,-99.99,,2013-04-17 20:52:00,
2013-04-17 16:02:00,37.0,32.0,29.86,North,360,15.0,21.0,80,-99.99,,,-99.99,,2013-04-17 21:02:00,
2013-04-17 16:12:00,37.0,32.0,29.86,North,360,17.0,24.0,80,-99.99,,,-99.99,,2013-04-17 21:12:00,
2013-04-17 16:22:00,37.0,32.0,29.88,North,350,17.0,23.0,80,-99.99,,,-99.99,,2013-04-17 21:22:00,
2013-04-17 16:32:00,37.0,32.0,29.89,North,360,14.0,-999.0,80,-99.99,,,-99.99,,2013-04-17 21:32:00,
2013-04-17 16:42:00,37.0,32.0,29.89,North,360,17.0,24.0,80,-99.99,,,-99.99,,2013-04-17 21:42:00,
2013-04-17 16:53:00,37.0,34.0,29.89,North,360,18.0,24.0,86,-99.99,,,-99.99,,2013-04-17 21:53:00,
2013-04-17 17:02:00,37.0,34.0,29.89,North,360,18.0,24.0,86,-99.99,,,-99.99,,2013-04-17 22:02:00,
2013-04-17 17:12:00,37.0,34.0,29.89,North,350,15.0,-999.0,86,-99.99,,,-99.99,,2013-04-17 22:12:00,
2013-04-17 17:22:00,37.0,34.0,29.88,North,350,14.0,21.0,86,-99.99,,,-99.99,,2013-04-17 22:22:00,
2013-04-17 17:33:00,37.0,34.0,29.89,North,350,15.0,22.0,86,-99.99,,,-99.99,,2013-04-17 22:33:00,
2013-04-17 17:42:00,37.0,34.0,29.89,North,350,14.0,22.0,86,-99.99,,,-99.99,,2013-04-17 22:42:00,
2013-04-17 17:52:00,37.0,36.0,29.88,North,350,17.0,23.0,93,-99.99,,,-99.99,,2013-04-17 22:52:00,
2013-04-17 18:02:00,37.0,36.0,29.88,North,350,17.0,23.0,93,-99.99,,,-99.99,,2013-04-17 23:02:00,
2013-04-17 18:12:00,37.0,36.0,29.86,North,350,20.0,25.0,93,-99.99,,,-99.99,,2013-04-17 23:12:00,
2013-04-17 18:22:00,37.0,36.0,29.86,North,350,18.0,25.0,93,-99.99,,,-99.99,,2013-04-17 23:22:00,
2013-04-17 18:32:00,37.0,36.0,29.87,North,350,17.0,25.0,93,-99.99,,,-99.99,,2013-04-17 23:32:00,
2013-04-17 18:42:00,37.0,36.0,29.86,North,360,20.0,27.0,93,-99.99,,,-99.99,,2013-04-17 23:42:00,
2013-04-17 18:52:00,37.0,36.0,29.87,North,350,20.0,28.0,93,-99.99,,,-99.99,,2013-04-17 23:52:00,
2013-04-17 19:02:00,37.0,36.0,29.87,North,350,20.0,28.0,93,-99.99,,,-99.99,,2013-04-18 00:02:00,
2013-04-17 19:12:00,36.0,34.0,29.88,North,350,17.0,30.0,93,-99.99,,,-99.99,,2013-04-18 00:12:00,
2013-04-17 19:22:00,36.0,34.0,29.88,North,350,21.0,28.0,93,-99.99,,,-99.99,,2013-04-18 00:22:00,
2013-04-17 19:32:00,36.0,34.0,29.88,NNW,340,24.0,29.0,93,-99.99,,,-99.99,,2013-04-18 00:32:00,
2013-04-17 19:42:00,36.0,32.0,29.88,North,350,22.0,32.0,86,-99.99,,,-99.99,,2013-04-18 00:42:00,
2013-04-17 19:52:00,36.0,32.0,29.88,NNW,340,21.0,31.0,86,-99.99,,,-99.99,,2013-04-18 00:52:00,
2013-04-17 20:02:00,36.0,32.0,29.88,NNW,340,21.0,31.0,86,-99.99,,,-99.99,,2013-04-18 01:02:00,
2013-04-17 20:12:00,36.0,32.0,29.88,North,350,24.0,31.0,86,-99.99,,,-99.99,,2013-04-18 01:12:00,
2013-04-17 20:22:00,36.0,32.0,29.90,North,350,24.0,29.0,86,-99.99,,,-99.99,,2013-04-18 01:22:00,
2013-04-17 20:32:00,36.0,32.0,29.90,NNW,340,27.0,31.0,86,-99.99,,,-99.99,,2013-04-18 01:32:00,
2013-04-17 20:42:00,34.0,30.0,29.90,North,350,21.0,31.0,86,-99.99,,,-99.99,,2013-04-18 01:42:00,
2013-04-17 20:52:00,34.0,30.0,29.91,NNW,340,24.0,30.0,86,-99.99,,,-99.99,,2013-04-18 01:52:00,
2013-04-17 21:02:00,34.0,30.0,29.91,NNW,340,24.0,30.0,86,-99.99,,,-99.99,,2013-04-18 02:02:00,
2013-04-17 21:12:00,34.0,30.0,29.92,NNW,340,24.0,31.0,86,-99.99,,,-99.99,,2013-04-18 02:12:00,
2013-04-17 21:22:00,34.0,30.0,29.92,NNW,340,29.0,35.0,86,-99.99,,,-99.99,,2013-04-18 02:22:00,
2013-04-17 21:32:00,34.0,30.0,29.94,North,350,28.0,35.0,86,-99.99,,,-99.99,,2013-04-18 02:32:00,
2013-04-17 21:42:00,34.0,30.0,29.94,North,350,28.0,35.0,86,-99.99,,,-99.99,,2013-04-18 02:42:00,
2013-04-17 21:52:00,34.0,30.0,29.94,North,350,28.0,35.0,86,-99.99,,,-99.99,,2013-04-18 02:52:00,
2013-04-17 22:02:00,34.0,30.0,29.94,NNW,340,28.0,36.0,86,-99.99,,,-99.99,,2013-04-18 03:02:00,
2013-04-17 22:12:00,32.0,28.0,29.90,NNW,340,25.0,32.0,86,-99.99,,,-99.99,,2013-04-18 03:12:00,
2013-04-17 22:22:00,32.0,28.0,29.88,NNW,340,30.0,38.0,86,-99.99,,,-99.99,,2013-04-18 03:22:00,
2013-04-17 22:33:00,32.0,28.0,29.87,NNW,340,29.0,41.0,86,-99.99,,,-99.99,,2013-04-18 03:33:00,
2013-04-17 22:43:00,32.0,28.0,29.87,North,350,31.0,38.0,86,-99.99,,,-99.99,,2013-04-18 03:43:00,
2013-04-17 22:53:00,32.0,28.0,29.88,North,350,28.0,36.0,86,-99.99,,,-99.99,,2013-04-18 03:53:00,
2013-04-17 23:03:00,32.0,28.0,29.88,North,350,28.0,36.0,86,-99.99,,,-99.99,,2013-04-18 04:03:00,
2013-04-17 23:13:00,32.0,28.0,29.91,NNW,340,27.0,39.0,86,-99.99,,,-99.99,,2013-04-18 04:13:00,
2013-04-17 23:23:00,32.0,28.0,29.92,NNW,340,23.0,38.0,86,-99.99,,,-99.99,,2013-04-18 04:23:00,
2013-04-17 23:33:00,32.0,28.0,29.92,NNW,340,24.0,33.0,86,-99.99,,,-99.99,,2013-04-18 04:33:00,
2013-04-17 23:43:00,32.0,28.0,29.91,NNW,340,27.0,32.0,86,-99.99,,,-99.99,,2013-04-18 04:43:00,
2013-04-17 23:53:00,30.0,28.0,29.91,NNW,340,23.0,36.0,92,-99.99,,,-99.99,,2013-04-18 04:53:00,